Location: Buch
(49.7331°N, 12.1098°E)
Time: 15:42:32
(UTC+00:00)

Cosmos 2082 Rocket - Pass Details

Date: 12 May 2021
Orbit: 834 x 852 km, 71.0° (Epoch: 18 June)

Event Time Altitude Azimuth Distance (km) Brightness Sun altitude
Rises 21:21:25 0° 326° (NW) 3,393 7.0 -17.9°
Reaches altitude 10° 21:23:58 10° 320° (NW) 2,455 5.8 -18.1°
Maximum altitude 21:29:11 41° 252° (WSW) 1,205 3.0 -18.5°
Enters shadow 21:32:04 24° 198° (SSW) 1,689 3.4 -18.7°
